EHI
3 2 1 0 1 2 3 3 4 6 10 9 7 5 4 3 3 4 4 2 1 1 2 2 2 2 3 3 3 1 0 1 1 1 0 0 0 1 1 1 2 1 0
4 3 2 1 2 2 2 2 3 5 8 8 7 6 5 4 4 4 5 4 2 1 1 2 2 1 2 3 3 2 1 0 0 0 0 0 0 1 1 1 1 1 0
5 4 4 3 2 1 2 3 4 5 7 8 8 7 7 6 5 6 6 6 4 2 1 2 1 1 1 2 2 2 1 0 0 0 0 0 0 0 0 0 0 0 1
6 5 5 5 4 2 2 4 6 7 8 10 10 10 9 8 7 6 6 5 4 2 1 1 1 0 0 0 1 1 1 0 0 0 0 0 1 1 1 0 0 0 1
7 6 5 6 5 3 3 5 8 10 11 11 13 13 12 10 8 6 4 3 2 1 0 1 1 0 0 0 0 0 0 1 1 1 1 1 1 2 1 1 1 1 1
8 7 7 7 6 6 6 7 11 14 13 12 14 15 13 11 9 7 5 2 0 0 0 0 0 0 0 0 0 0 0 2 3 3 2 1 1 1 1 1 2 1 1
7 9 11 10 9 9 9 10 15 18 17 15 16 17 14 12 9 8 6 3 1 0 0 0 0 0 0 0 0 0 0 2 4 4 2 1 0 0 0 1 1 1 0
8 9 11 12 12 12 12 13 17 20 19 18 19 19 16 11 9 7 4 2 1 1 1 1 1 0 0 0 0 0 0 1 3 3 2 1 1 1 1 1 1 1 0
11 9 9 10 12 14 15 17 20 22 20 19 20 20 17 14 11 8 4 2 1 1 3 3 2 1 1 1 1 1 2 2 3 2 1 1 1 2 3 4 4 3 2
13 11 8 9 11 13 17 20 24 26 24 20 19 19 18 17 14 10 6 3 2 3 6 6 4 4 5 5 4 3 3 4 4 3 2 1 1 2 4 6 6 6 5
13 12 11 11 11 12 16 21 25 27 26 21 18 17 17 16 15 12 9 5 5 7 9 8 7 7 8 9 8 5 5 6 5 4 3 2 2 3 5 6 7 7 6
14 15 15 13 13 13 16 21 24 25 23 20 16 15 15 15 15 15 12 10 10 10 10 10 8 8 10 11 9 7 7 7 7 5 4 3 4 5 6 7 7 6 6
17 19 19 17 17 17 17 19 22 22 23 20 16 15 17 19 19 17 17 16 15 14 12 10 8 8 10 12 11 10 10 10 9 7 5 5 6 7 9 9 7 6 5
19 23 25 24 22 21 20 18 17 20 24 24 22 21 21 22 22 21 21 19 17 15 13 10 8 9 11 13 14 14 14 14 12 10 9 7 7 9 10 9 7 7 7
19 25 29 29 27 26 24 21 19 22 26 27 27 27 24 23 24 24 24 21 17 14 12 10 8 10 12 13 13 14 16 17 16 14 12 11 10 9 7 5 5 6 7
17 23 28 30 31 30 29 27 27 30 31 30 30 30 28 26 26 26 25 23 20 17 15 12 10 11 10 8 8 10 15 18 18 16 14 12 12 11 7 4 3 4 5
15 19 25 30 32 32 31 30 32 36 36 32 30 31 30 29 28 27 27 27 24 22 20 16 13 12 9 5 3 4 10 16 17 16 15 14 14 14 12 9 5 4 5
13 15 21 27 30 31 30 29 32 38 39 35 31 30 29 30 30 28 29 29 26 25 23 20 17 13 10 5 2 2 8 15 16 16 16 17 17 17 17 15 12 10 10
14 14 19 24 27 30 32 32 34 39 41 41 37 32 29 30 30 28 29 29 27 25 23 21 18 15 11 6 2 2 9 15 16 17 17 18 18 17 16 17 17 16 14
16 15 17 22 27 31 35 37 38 39 41 44 42 37 33 31 29 28 29 30 29 27 24 22 20 18 13 7 2 3 9 13 15 17 16 15 14 12 12 14 16 15 13
15 15 17 22 28 33 36 39 39 39 39 42 43 39 35 31 29 30 30 31 30 29 27 24 23 21 16 9 4 3 6 10 13 14 13 11 9 6 5 7 10 10 8
12 15 20 23 27 32 36 37 38 37 37 39 40 38 35 32 31 32 31 31 31 30 28 25 24 23 18 12 6 2 3 6 9 11 10 8 5 2 1 1 3 3 3
10 14 21 24 25 29 33 35 35 35 36 37 38 37 35 34 34 33 31 31 32 31 27 24 24 22 17 13 7 3 1 2 4 6 6 4 2 0 0 0 0 2 3
9 13 20 23 23 26 29 31 33 34 35 36 36 34 33 34 35 33 30 29 29 30 28 25 23 20 16 11 8 5 3 2 2 4 4 2 1 1 1 2 4 6 7
10 12 17 21 24 25 26 26 28 33 35 34 32 29 28 29 30 28 25 22 21 21 22 20 19 16 12 8 6 5 4 3 3 4 4 3 3 3 4 6 8 9 10
11 12 15 19 23 24 24 23 25 31 34 32 30 27 25 25 25 23 21 16 13 12 11 13 13 11 6 3 3 4 4 4 4 4 4 5 4 4 5 8 10 11 11
Wind_Speed
10 9 8 7 7 6 5 5 4 4 3 2 2 2 2 1 2 2 3 2 2 2 1 2 3 1 2 2 2 2 3 2 2 2 2 3 2 3 2 1 2 2 2
11 10 10 8 8 7 6 6 6 5 4 3 2 1 1 1 2 2 2 2 2 2 2 2 2 2 2 2 2 1 1 1 1 1 1 2 3 2 2 1 2 2 1
13 12 11 9 9 8 8 6 6 6 5 4 3 2 2 2 2 2 2 2 2 2 1 2 1 1 1 2 1 1 1 0 1 0 1 1 1 2 2 1 2 2 1
13 12 12 11 10 9 8 7 6 6 6 5 4 4 3 2 2 2 2 2 2 2 2 2 2 1 1 2 1 1 0 1 0 1 1 2 2 1 1 2 2 2 1
14 13 12 12 10 10 9 8 7 7 6 6 5 4 3 2 2 2 3 2 2 2 2 2 1 1 1 1 1 1 1 1 2 1 1 0 1 2 1 1 1 2 1
13 13 12 11 11 10 9 8 8 7 7 7 6 5 4 3 3 2 3 2 2 2 2 2 1 1 1 1 1 1 0 1 2 3 2 1 1 1 1 1 2 1 1
13 13 13 13 12 11 10 9 9 8 8 8 7 6 5 4 4 3 2 2 2 2 2 1 1 1 1 1 1 1 1 1 2 2 2 2 1 1 1 1 1 1 1
12 13 13 13 12 12 11 10 10 9 8 8 7 6 5 4 3 3 2 2 1 1 2 1 1 1 1 1 1 1 1 1 2 2 2 2 1 1 1 1 1 2 1
12 12 13 13 12 12 12 11 10 9 9 8 8 6 6 5 3 3 3 2 1 2 2 2 2 1 1 1 1 1 1 1 2 2 2 2 1 1 1 2 2 2 2
11 12 12 13 12 11 11 11 10 9 9 8 7 6 6 6 5 4 3 2 2 2 2 2 2 1 1 1 2 2 1 1 1 1 2 2 2 1 1 2 2 2 2
10 11 11 12 12 12 11 11 10 10 9 8 8 7 7 6 6 4 4 3 3 3 3 2 2 2 2 1 1 1 1 1 1 1 1 1 2 2 2 2 2 2 2
8 10 11 12 12 11 11 11 10 9 9 8 8 7 7 6 6 5 4 4 4 3 3 3 3 2 2 2 2 2 1 2 1 1 2 2 1 1 3 2 2 1 1
8 9 10 10 11 11 10 10 10 9 9 9 8 8 7 7 6 5 4 4 4 3 3 3 3 2 2 2 2 2 2 2 2 2 2 2 2 2 2 2 2 2 1
8 9 9 9 10 9 9 9 9 9 9 9 9 8 7 7 7 6 5 5 4 4 3 3 3 3 2 2 2 3 3 3 2 2 2 2 2 2 3 2 2 2 2
9 9 9 9 9 9 9 9 9 9 9 9 8 8 7 7 7 6 6 5 4 4 3 3 3 3 3 2 2 3 3 3 3 3 3 2 2 3 3 3 2 2 3
9 9 9 9 10 10 10 9 9 9 9 9 8 8 8 7 7 6 6 6 5 4 4 4 4 4 2 3 1 3 3 3 3 3 3 3 3 2 2 3 4 4 4
9 10 9 9 9 10 10 10 9 9 9 9 8 8 8 7 7 7 6 6 6 5 5 4 4 4 2 3 1 3 4 3 3 3 3 4 1 2 3 4 4 3 3
8 8 8 8 9 9 9 9 9 9 9 9 8 8 8 8 7 6 6 6 5 5 5 5 4 4 3 3 3 3 5 4 4 4 4 4 3 3 3 3 3 3 3
6 6 7 7 8 8 9 9 9 9 9 9 8 8 8 7 7 6 6 6 5 5 5 4 4 4 3 4 3 4 4 3 4 4 3 4 3 1 3 4 3 3 3
5 6 6 7 8 8 9 9 9 9 9 9 8 8 7 7 7 6 6 5 5 5 5 4 4 4 3 4 4 5 4 3 3 3 3 2 3 2 3 4 4 4 3
6 6 6 6 7 8 9 9 9 8 8 8 7 7 7 7 7 6 5 5 5 4 4 4 4 4 3 4 5 5 4 3 3 3 2 0 2 3 3 5 4 4 4
6 7 6 6 6 7 8 8 8 7 7 8 8 7 7 6 6 6 5 5 5 5 5 4 4 3 3 3 4 5 4 4 3 3 2 1 2 2 3 3 2 3 5
6 6 6 6 6 6 7 8 7 7 7 8 7 7 7 6 6 6 6 6 5 5 4 4 4 3 3 4 6 6 6 5 4 2 2 1 1 2 3 4 3 4 4
6 6 6 6 5 6 6 6 7 7 8 8 7 7 7 6 5 4 5 5 4 4 4 3 3 2 3 2 3 4 4 5 5 3 2 4 5 4 2 3 5 5 3
5 5 5 6 6 6 6 6 6 7 7 7 7 7 6 6 5 4 2 3 2 1 2 2 2 2 2 1 0 2 2 2 1 2 3 3 2 3 3 3 3 3 3
4 5 5 5 5 5 5 6 6 7 7 7 7 6 5 5 5 5 4 3 2 4 3 1 2 1 1 2 2 2 2 2 2 4 4 3 3 3 3 3 3 3 3
Wind_Direction
180 177 180 181 178 177 179 186 193 181 192 178 179 162 143 137 131 119 98 100 104 106 94 88 102 96 101 98 118 131 133 134 121 134 121 111 103 100 114 123 126 130 131
184 183 182 183 184 181 184 187 191 187 192 179 189 172 136 143 130 111 111 116 119 134 137 104 115 104 109 115 121 145 147 134 144 230 197 158 143 133 113 127 137 114 130
190 185 185 186 187 186 189 192 191 186 190 183 186 166 153 166 140 139 135 124 130 136 104 115 98 113 136 118 134 166 193 177 127 273 294 270 144 141 143 149 124 121 137
193 188 186 188 190 189 187 190 188 188 185 187 194 188 178 166 146 148 121 128 128 127 127 125 113 121 105 108 167 120 230 257 212 174 274 319 348 271 149 157 134 141 146
194 191 189 188 190 188 187 184 181 184 184 190 187 197 197 182 157 143 128 146 131 137 129 128 126 138 131 107 52 89 294 299 302 305 290 220 218 250 236 172 163 150 138
193 192 189 187 189 188 186 179 176 180 183 187 188 196 197 191 165 157 147 171 154 150 143 146 143 158 131 141 170 233 215 316 322 311 311 297 288 271 250 217 212 173 108
192 188 187 186 187 187 186 180 177 181 182 183 186 190 196 192 184 192 175 201 171 157 147 151 168 166 163 174 190 191 307 294 295 289 294 301 302 315 289 255 224 234 206
191 189 186 186 186 184 184 182 179 181 182 183 183 188 195 202 193 192 211 188 207 151 137 171 175 175 185 187 186 216 208 252 279 296 306 291 299 305 289 285 250 239 219
187 187 183 182 182 182 181 181 178 180 182 183 180 183 192 204 196 183 201 192 177 162 150 170 172 171 178 217 223 208 243 239 257 257 243 278 304 284 281 276 266 264 261
182 181 180 179 179 178 177 178 177 179 181 182 184 178 184 187 189 193 184 181 173 159 158 176 187 185 184 205 242 218 176 232 254 286 321 303 305 313 285 274 279 277 270
178 176 175 174 174 175 173 175 176 177 179 183 183 183 178 179 182 186 186 183 183 174 177 181 186 187 189 192 212 265 211 232 249 268 257 276 306 302 293 280 273 269 266
172 171 170 170 172 174 171 172 174 177 178 179 181 181 177 179 180 179 181 180 181 183 176 178 182 189 186 202 220 238 231 235 246 276 283 275 265 278 289 293 290 292 283
166 164 166 170 173 173 172 172 174 176 176 174 177 177 177 176 178 178 175 175 177 181 181 183 192 198 197 206 220 232 238 243 252 266 276 280 280 278 291 284 278 262 238
165 164 165 170 171 171 173 175 175 174 173 173 173 172 175 176 177 177 176 176 179 184 188 194 201 206 210 215 220 223 234 245 256 271 279 284 283 285 283 270 270 273 257
170 168 168 168 168 170 172 176 176 173 172 173 173 172 173 174 176 175 174 176 182 186 188 199 204 211 214 223 233 235 230 235 247 257 263 273 316 350 319 306 293 266 259
176 172 172 171 173 173 174 174 175 174 172 171 174 170 174 173 173 178 176 177 181 184 189 196 204 212 221 86 18 276 254 247 250 258 264 251 222 222 233 298 312 306 272
182 179 178 176 175 174 172 174 173 172 171 172 174 173 176 177 179 184 180 183 183 183 188 196 205 210 177 120 188 266 262 256 266 268 268 271 269 245 242 222 225 250 277
184 180 177 173 173 168 168 168 167 171 172 173 176 177 180 180 179 182 185 186 187 188 192 197 204 208 176 154 199 252 241 256 264 266 269 274 276 288 283 250 239 244 246
185 180 177 170 166 166 165 163 165 169 172 174 178 180 181 180 180 183 187 187 188 190 193 194 200 207 187 171 202 247 242 242 254 261 266 271 269 299 288 254 245 251 249
176 175 174 167 164 165 163 166 166 171 176 175 177 178 178 178 179 179 183 183 189 194 197 191 200 207 207 176 189 236 250 248 253 244 238 235 273 249 255 249 245 250 258
171 166 170 169 166 164 165 169 170 175 176 173 172 173 175 177 176 175 179 183 189 189 199 194 199 203 203 173 186 225 255 262 260 257 254 157 148 203 235 261 260 270 275
166 165 163 159 160 166 169 170 174 172 170 169 171 171 172 178 171 172 176 182 186 188 196 198 204 192 174 172 183 203 241 284 269 274 290 40 106 188 223 251 295 286 270
166 167 160 156 160 169 172 170 166 163 163 166 168 167 169 172 170 176 176 181 191 207 206 202 206 196 177 165 176 197 217 243 253 285 6 353 203 219 212 209 216 231 241
171 171 165 161 163 171 172 168 163 165 166 167 166 166 168 168 169 183 185 186 191 203 207 209 213 209 197 199 188 194 200 207 222 241 193 187 208 230 227 202 207 227 237
176 178 179 172 168 169 172 168 167 170 171 171 172 173 173 168 167 174 175 185 164 172 220 218 222 230 226 158 338 258 240 250 257 260 229 224 214 224 224 226 226 230 224
180 183 181 175 172 173 171 168 172 177 178 177 179 180 177 172 176 172 167 88 119 123 120 47 292 240 129 151 190 247 277 258 231 240 234 236 236 240 246 249 243 236 231